Hourly Data Report for March 28, 2003

TORONTO CITY
ONTARIO

43°40'00.000" N
79°24'00.000" W
112.50 m
6158355
71508
XTO

Download Data

Hourly Data (March 2003)
Hourly Data Report for March 28, 2003
TIME
LST
Temp Definition
°C
Dew Point Definition
°C
Rel Hum Definition
%
Precip. Amount Definition
mm

Wind Dir Definition
10's deg

Wind Spd Definition
km/h
Visibility Definition
km
Stn Press Definition
kPa
Hmdx Definition


Wind Chill Definition


Weather Definition


00:00 5.6 -1.4 61   LegendMM LegendMM LegendMM 100.48     LegendNANA
01:00 5.9 -2.1 56   LegendMM LegendMM LegendMM 100.39     LegendNANA
02:00 6.3 -1.9 56   LegendMM LegendMM LegendMM 100.30     LegendNANA
03:00 5.5 -1.1 62   LegendMM LegendMM LegendMM 100.26     LegendNANA
04:00 5.2 -0.5 67   LegendMM LegendMM LegendMM 100.24     LegendNANA
05:00 5.1 0.1 70   LegendMM LegendMM LegendMM 100.17     LegendNANA
06:00 4.8 0.8 75   LegendMM LegendMM LegendMM 100.13     LegendNANA
07:00 5.2 1.5 77   LegendMM LegendMM LegendMM 100.11     LegendNANA
08:00 5.6 3.0 83   LegendMM LegendMM LegendMM 100.06     LegendNANA
09:00 5.7 3.6 86   LegendMM LegendMM LegendMM 100.03     LegendNANA
10:00 7.5 4.1 79   LegendMM LegendMM LegendMM 99.97     LegendNANA
11:00 10.0 4.0 66   LegendMM LegendMM LegendMM 99.94     LegendNANA
12:00 13.4 4.0 53   LegendMM LegendMM LegendMM 99.89     LegendNANA
13:00 12.8 3.7 54   LegendMM LegendMM LegendMM 99.82     LegendNANA
14:00 15.7 4.7 48   LegendMM LegendMM LegendMM 99.70     LegendNANA
15:00 15.7 3.8 45   LegendMM LegendMM LegendMM 99.58     LegendNANA
16:00 16.1 3.5 43   LegendMM LegendMM LegendMM 99.50     LegendNANA
17:00 16.1 4.2 45   LegendMM LegendMM LegendMM 99.43     LegendNANA
18:00 15.8 4.8 48   LegendMM LegendMM LegendMM 99.31     LegendNANA
19:00 15.1 6.7 57   LegendMM LegendMM LegendMM 99.27     LegendNANA
20:00 15.7 7.7 59   LegendMM LegendMM LegendMM 99.28     LegendNANA
21:00 15.2 8.0 62   LegendMM LegendMM LegendMM 99.24     LegendNANA
22:00 14.5 8.2 66   LegendMM LegendMM LegendMM 99.16     LegendNANA
23:00 13.6 8.0 69   LegendMM LegendMM LegendMM 99.10     LegendNANA

Notes on Data Quality.

Legend

  • E = Estimated
  • M = Missing
  • NA = Not Available*
  • [empty] = Indicates an unobserved value
Date modified: